TimeEST,TemperatureF,Dew PointF,Humidity,Sea Level PressureIn,VisibilityMPH,Wind Direction,Wind SpeedMPH,Gust SpeedMPH,PrecipitationIn,Events,Conditions,WindDirDegrees,DateUTC
12:10 AM,46.9,46.0,97,29.97,4.0,Calm,Calm,-,N/A,,Overcast,0,2013-12-02 05:10:00
12:21 AM,46.9,46.0,97,29.96,1.8,Calm,Calm,-,N/A,,Overcast,0,2013-12-02 05:21:00
12:32 AM,46.0,45.0,96,29.96,0.5,Calm,Calm,-,N/A,Fog,Fog,0,2013-12-02 05:32:00
12:39 AM,46.0,45.0,96,29.96,0.2,Calm,Calm,-,N/A,Fog,Fog,0,2013-12-02 05:39:00
12:52 AM,46.0,44.1,93,29.97,0.2,WNW,3.5,-,N/A,Fog,Fog,290,2013-12-02 05:52:00
1:03 AM,46.0,45.0,96,29.96,0.5,Calm,Calm,-,N/A,Fog,Fog,0,2013-12-02 06:03:00
1:52 AM,46.0,44.1,93,29.98,1.0,NW,6.9,-,N/A,,Mist,310,2013-12-02 06:52:00
2:52 AM,43.0,42.1,97,29.97,1.2,NW,5.8,-,N/A,,Overcast,310,2013-12-02 07:52:00
3:52 AM,43.0,42.1,97,29.97,1.2,NW,4.6,-,N/A,,Overcast,310,2013-12-02 08:52:00
4:52 AM,44.1,43.0,96,29.97,1.0,Variable,4.6,-,N/A,,Overcast,0,2013-12-02 09:52:00
5:11 AM,44.1,43.0,96,29.96,0.8,NW,4.6,-,N/A,,Mist,310,2013-12-02 10:11:00
5:19 AM,44.1,43.0,96,29.96,1.0,Variable,3.5,-,N/A,,Overcast,0,2013-12-02 10:19:00
5:50 AM,42.8,42.8,100,29.97,3.0,Variable,4.6,-,N/A,,Overcast,0,2013-12-02 10:50:00
5:51 AM,43.0,42.1,97,29.98,3.0,Variable,4.6,-,N/A,,Overcast,0,2013-12-02 10:51:00
6:22 AM,43.0,42.1,97,29.97,2.5,Variable,3.5,-,N/A,,Overcast,0,2013-12-02 11:22:00
6:32 AM,43.0,42.1,97,29.97,3.0,Variable,3.5,-,N/A,,Overcast,0,2013-12-02 11:32:00
6:39 AM,43.0,42.1,97,29.97,2.0,Variable,3.5,-,N/A,,Overcast,0,2013-12-02 11:39:00
6:52 AM,43.0,42.1,97,29.98,2.5,Calm,Calm,-,N/A,,Overcast,0,2013-12-02 11:52:00
7:14 AM,42.1,41.0,96,29.97,1.2,Variable,5.8,-,N/A,,Overcast,0,2013-12-02 12:14:00
7:52 AM,42.1,41.0,96,29.98,2.0,North,3.5,-,N/A,,Overcast,350,2013-12-02 12:52:00
8:07 AM,42.1,41.0,96,29.97,3.0,North,5.8,-,N/A,,Overcast,350,2013-12-02 13:07:00
8:52 AM,42.1,41.0,96,29.98,9.0,Variable,4.6,-,N/A,,Overcast,0,2013-12-02 13:52:00
9:52 AM,43.0,41.0,93,29.98,4.0,Variable,3.5,-,N/A,,Overcast,0,2013-12-02 14:52:00
10:00 AM,43.0,41.0,93,29.97,8.0,NNW,5.8,-,N/A,,Overcast,330,2013-12-02 15:00:00
10:52 AM,43.0,41.0,93,29.97,10.0,Variable,4.6,-,N/A,,Overcast,0,2013-12-02 15:52:00
11:52 AM,44.1,41.0,89,29.95,10.0,Variable,6.9,-,N/A,,Overcast,0,2013-12-02 16:52:00
12:52 PM,44.1,39.9,85,29.94,10.0,Variable,4.6,-,N/A,,Overcast,0,2013-12-02 17:52:00
1:52 PM,44.1,39.0,82,29.93,10.0,Variable,4.6,-,N/A,,Overcast,0,2013-12-02 18:52:00
2:52 PM,42.1,39.0,89,29.93,10.0,NNW,6.9,-,N/A,,Overcast,330,2013-12-02 19:52:00
3:52 PM,42.1,37.9,85,29.95,10.0,NNW,4.6,-,N/A,,Overcast,340,2013-12-02 20:52:00
4:52 PM,41.0,37.9,89,29.94,10.0,NNW,4.6,-,N/A,,Overcast,340,2013-12-02 21:52:00
5:52 PM,39.9,37.0,89,29.95,10.0,Calm,Calm,-,N/A,,Overcast,0,2013-12-02 22:52:00
6:52 PM,39.9,37.0,89,29.95,10.0,Variable,4.6,-,N/A,,Overcast,0,2013-12-02 23:52:00
7:52 PM,39.9,37.0,89,29.95,10.0,Variable,5.8,-,N/A,,Overcast,0,2013-12-03 00:52:00
8:52 PM,39.9,37.0,89,29.97,10.0,Calm,Calm,-,N/A,,Overcast,0,2013-12-03 01:52:00
9:52 PM,39.0,36.0,89,29.94,10.0,NNW,4.6,-,N/A,,Overcast,340,2013-12-03 02:52:00
10:52 PM,39.0,36.0,89,29.93,10.0,Variable,3.5,-,N/A,,Overcast,0,2013-12-03 03:52:00
11:52 PM,39.0,37.0,93,29.90,10.0,Variable,3.5,-,N/A,,Overcast,0,2013-12-03 04:52:00